CZ-6A DEB, 56610

Orbit data source: Space-Track

CZ-6A DEB, 56610 is space debris in SSO originally from a launch on Fri, 11 Nov 2022 UTC launched from the Taiyaun Space Center, China (TSC). Debris objects in space refer to the collection of defunct objects orbiting the Earth. Examples of debris include non-operational satellites, rocket bodies, and fragments generated from explosions, collisions, or faulty payload assembly.

Loading next visibility...
Identifier
56610, 2022-151AEJ
Orbit
SSO
Country
Flag of CNCN / PRC
Related business
Manufacturer
SAST
Mission
Spacecraft
Bus & Motor
Unknown
Mass
Unknown
Launch date (UTC)
2022-11-11 (4 years ago)
Launch vehicle
Unknown
Launch site
Taiyaun Space Center, China (TSC)
Object type
Payload
Rocket body
Debris
Shape & HBR
Unknown shape, 0.1 m
Radar Cross Section
Medium (>0.1 m² and <1 m²)

Expand to show TLE details & history
Last TLE update: 1 day ago

TLE from 1 day ago
0 CZ-6A DEB
1 56610U 22151AEJ 26237.26314975  .00000312  00000-0  20355-3 0  9990
2 56610  98.8486 230.9384 0053096 141.7150 218.7809 14.08658778191442
Epoch: 2026-08-25T06:18Z
TLE epoch observation values (Epoch: 2026-08-25T06:18:56.138Z)
Latitude
0.00006°
Longitude
162.67147°
Altitude
896.921 km
Speed
7.388 km/s
True Right ascension
15h 23m 45s
True Declination
0° 00' 00"
Sunlit
Object was in daylight at epoch
Visualization orbit readout
Latitude
Unknown
Longitude
Unknown
Altitude
Unknown
Speed
Unknown
Apparent Right ascension
Unknown
Apparent Declination
Unknown
Sunlit
N/A
Visualization observer readout
Local Sidereal Time
09:34:55
Azimuth
Unknown
Elevation
Unknown
Doppler factor
Unknown
Orbital elements
Apogee altitude
899.583 km
Perigee altitude
822.708 km
Semi-major axis
7,239.282 km
Eccentricity
0.00531
Inclination
98.8486°
RAAN
230.9384°
Arg. of periapsis
141.715°
True anomaly
218.40177°
Mean anomaly
218.7809°
Eccentric anomaly
218.59114°
Mean motion
3.52371 °/min
Orbital period
102.17 mins
BSTAR
0.00020355
Loading maneuver chart data...
Computing Atmospheric mass density...
Loading historical data...
Loading historical data...
Loading historical data...
Loading historical data...
Loading historical data...
Loading historical data...
Loading historical data...

Documentation

Showing up to 5 results
|